N8DNY-13 Weather Reports


Display with metric or nautical units.
time (UTC)temp
F
wind
direction
speed
MPH
gust
MPH
rain 1hr
in
rain 24hr
in
rain mn
in
humidity
%
barometer
mb
20260904212051 81 288 0.0 0.0 0.00 1.14 1.14 80 1013.7
20260904210521 79 284 0.0 0.0 0.00 1.14 1.14 84 1014.0
20260904205010 76 273 0.0 0.0 0.00 1.14 1.14 87 1013.6
20260904203522 76 294 0.0 1.0 0.00 1.14 1.14 88 1014.0
20260904202001 76 291 0.0 0.0 0.00 1.14 1.14 91 1013.9
20260904200500 75 292 1.0 1.0 0.00 1.14 1.14 91 1013.8
20260904194951 76 318 1.0 3.0 0.00 1.14 1.14 91 1013.2
20260904193500 76 290 0.0 0.0 0.00 1.14 1.14 91 1012.3
20260904191930 76 294 0.0 0.0 0.00 1.14 1.14 91 1013.4
20260904190420 76 270 0.0 0.0 0.00 1.14 1.14 92 1014.6
20260904184910 75 270 0.0 0.0 0.00 1.14 1.14 93 1015.0
20260904183400 75 271 1.0 2.0 0.00 1.14 1.14 95 1015.1
20260904181850 75 283 1.0 3.0 0.00 1.14 1.14 99 1014.7
20260904180340 73 286 0.0 0.0 0.00 1.14 1.14 99 1014.7
20260904174830 71 274 0.0 1.0 0.00 1.14 1.14 99 1014.9
20260904173320 70 277 0.0 0.0 0.00 1.14 1.14 99 1015.2
20260904171811 70 221 2.0 2.0 0.07 1.14 1.14 99 1014.8
20260904170300 70 279 0.0 0.0 0.05 1.13 1.13 99 1015.8
20260904164750 69 283 0.0 0.0 0.07 1.12 1.12 99 1016.9
20260904163240 70 292 0.0 0.0 0.42 1.05 1.05 99 1018.0
20260904161730 70 295 0.0 0.0 0.38 0.97 0.97 99 1018.8
20260904160240 71 293 0.0 0.0 0.00 0.91 0.91 99 1019.3
20260904154730 71 293 0.0 0.0 0.00 0.91 0.91 99 1018.3
20260904153200 70 282 0.0 0.0 0.00 0.91 0.91 99 1017.4
20260904151650 70 291 0.0 0.0 0.54 0.90 0.90 99 1017.0
20260904150141 70 275 0.0 1.0 0.17 0.80 0.80 99 1017.4
20260904144651 70 303 0.0 1.0 0.07 0.77 0.77 99 1017.4
20260904143120 71 298 1.0 2.0 0.17 0.76 0.76 99 1017.9
20260904141611 71 284 0.0 0.0 0.00 0.73 0.73 99 1017.3
20260904140100 72 265 2.0 3.0 0.00 0.73 0.73 99 1017.2
20260904134611 72 275 0.0 0.0 0.00 0.73 0.73 99 1015.8
20260904133040 71 283 0.0 0.0 0.00 0.73 0.73 99 1015.4
20260904131530 71 276 0.0 0.0 0.00 0.73 0.73 99 1015.3
20260904130040 71 280 0.0 0.0 0.00 0.73 0.73 99 1014.9
20260904124531 70 275 0.0 0.0 0.00 0.73 0.73 99 1014.8
20260904123003 70 288 0.0 0.0 0.07 0.73 0.73 99 1015.4
20260904121501 70 282 0.0 0.0 0.00 0.72 0.72 99 1015.5
20260904120001 71 294 0.0 1.0 0.00 0.72 0.72 99 1016.8
20260904114501 71 291 2.0 4.0 0.00 0.72 0.72 99 1016.9
20260904113010 71 292 0.0 0.0 0.00 0.72 0.72 99 1015.0
20260904111440 71 292 0.0 0.0 0.00 0.72 0.72 99 1015.2
20260904105931 71 286 0.0 0.0 0.07 0.72 0.72 99 1015.0
20260904104421 71 285 0.0 0.0 0.00 0.71 0.71 99 1014.4
20260904102911 71 279 0.0 1.0 0.85 0.68 0.68 99 1014.2
20260904101400 70 293 0.0 0.0 0.66 0.39 0.39 99 1014.8
20260904095911 70 285 0.0 0.0 0.35 0.26 0.26 99 1014.7
20260904094340 70 280 0.0 0.0 0.42 0.10 0.10 99 1015.6
20260904092851 71 271 1.0 1.0 0.19 0.03 0.03 99 1014.8
20260904091321 70 293 0.0 0.0 0.00 0.00 0.00 99 1014.7
20260904085830 70 293 0.0 0.0 0.00 0.00 0.00 99 1014.7
20260904084320 70 293 0.0 0.0 0.00 0.00 0.00 99 1015.0
20260904082751 70 293 0.0 0.0 0.00 0.00 0.00 99 1014.8
20260904081301 70 293 0.0 0.0 0.00 0.00 0.00 99 1014.8
20260904075730 70 293 0.0 0.0 0.00 0.00 0.00 99 1014.7
20260904074220 70 293 0.0 0.0 0.00 0.00 0.00 99 1014.6
20260904072730 70 293 0.0 0.0 0.00 0.00 0.00 99 1014.8
20260904071200 70 293 0.0 0.0 0.00 0.00 0.00 99 1015.0
20260904065711 70 293 0.0 0.0 0.00 0.00 0.00 99 1014.9
20260904064140 70 292 0.0 0.0 0.00 0.00 0.00 99 1015.4
20260904062631 70 292 0.0 0.0 0.00 0.00 0.00 99 1015.1
20260904061120 70 292 0.0 0.0 0.00 0.00 0.00 99 1015.2
20260904055610 70 292 0.0 0.0 0.00 0.00 0.00 99 1015.3
20260904054120 70 292 0.0 0.0 0.00 0.00 0.00 99 1015.4
20260904052550 70 292 0.0 0.0 0.00 0.00 0.00 99 1015.4
20260904051041 70 292 0.0 0.0 0.00 0.00 0.00 99 1015.6
20260904045531 71 292 0.0 0.0 0.00 0.00 0.00 99 1015.3
20260904044030 70 292 0.0 0.0 0.00 0.00 0.00 99 1015.3
20260904042521 70 292 0.0 0.0 0.00 0.00 0.00 99 1015.4
20260904041011 70 292 0.0 0.0 0.00 0.00 0.00 99 1015.5
20260904035502 70 292 0.0 0.0 0.00 1.09 1.09 99 1015.2
20260904034001 70 292 0.0 0.0 0.00 1.09 1.09 99 1015.1
20260904032500 71 292 0.0 0.0 0.00 1.09 1.09 99 1015.3
20260904031010 71 292 0.0 0.0 0.00 1.09 1.09 99 1015.3
20260904025449 71 292 0.0 0.0 0.00 1.09 1.09 99 1015.2
20260904023940 71 292 0.0 0.0 0.00 1.09 1.09 99 1015.2
20260904022450 71 291 0.0 0.0 0.00 1.09 1.09 99 1015.1
20260904020921 71 271 0.0 0.0 0.00 1.09 1.09 99 1014.7
20260904015410 71 271 0.0 0.0 0.00 1.09 1.09 99 1014.7
20260904013900 71 271 0.0 0.0 0.00 1.09 1.09 99 1014.7
20260904012410 71 271 0.0 0.0 0.00 1.09 1.09 98 1014.5
20260904010900 72 271 0.0 0.0 0.00 1.09 1.09 98 1014.9
20260904005330 72 278 0.0 0.0 0.00 1.09 1.09 98 1014.6
20260904003841 72 275 0.0 0.0 0.00 1.09 1.09 98 1014.7
20260904002310 72 278 0.0 0.0 0.00 1.09 1.09 98 1014.5
20260904000800 72 278 0.0 0.0 0.00 1.09 1.09 98 1014.6
20260903235250 72 276 0.0 0.0 0.00 1.09 1.09 98 1014.6
20260903233740 72 274 0.0 0.0 0.00 1.09 1.09 98 1014.6
20260903232230 72 280 0.0 1.0 0.00 1.09 1.09 97 1014.8
20260903230720 72 291 0.0 0.0 0.00 1.09 1.09 97 1014.6
20260903225230 72 318 0.0 1.0 0.00 1.09 1.09 97 1015.0
20260903223700 72 291 0.0 1.0 0.00 1.09 1.09 97 1015.1
20260903222150 72 304 0.0 1.0 0.00 1.09 1.09 97 1015.5
20260903220641 72 292 0.0 0.0 0.00 1.09 1.09 97 1015.7
20260903215131 72 294 0.0 1.0 0.00 1.09 1.09 97 1015.0
20260903213620 71 291 0.0 1.0 0.05 1.09 1.09 97 1015.1